Regional Weather Roundup
Issued by NWS

Home | Current Version | Previous Version | Graphics & Text | Print | Product List | Glossary On
Versions: 1 2 3 4 5 6 7 8 9 10 11 12 13 14 15 16 17 18 19 20 21 22 23 24 25 26 27 28 29 30 31 32 33 34 35 36 37 38 39 40 41 42 43 44 45 46 47 48 49 50
000
ASUS43 KIND 301609
RWRIN

WEATHER ROUNDUP FOR INDIANA
NATIONAL WEATHER SERVICE INDIANAPOLIS IN
1200 PM EDT MON MAR 30 2015

NOTE: "FAIR" INDICATES FEW OR NO CLOUDS BELOW 12,000 FEET WITH NO
SIGNIFICANT WEATHER AND/OR OBSTRUCTIONS TO VISIBILITY.

* - STATION DOES NOT REPORT WEATHER SUCH AS PRECIPITATION OR FOG.

+ - STATION NOT QUALITY CONTROLLED BY THE NATIONAL WEATHER SERVICE.
    USE DATA WITH CAUTION...ESPECIALLY DEWPOINT AND RELATIVE
    HUMIDITY OBSERVATIONS.

INZ001>003-010>013-019-020-301700-
NORTHWEST INDIANA

CITY           SKY/WX    TMP DP  RH WIND       PRES   REMARKS
GARY /AIRPORT/ MOSUNNY   54  19  26 W15       30.08R
KNOX *+          N/A     52   3  14 W18       30.06S
LA PORTE +     SUNNY     54  27  34 NW15G26   30.06R
MICHIGAN CITY+ SUNNY     52  21  30 W12G18    30.07R
MONTICELLO +   SUNNY     51  32  47 W12       30.09S
RENSSELAER +   SUNNY     52  32  46 W15G22    30.09S
VALPARAISO     SUNNY     52  28  39 W20       30.07S

$$

LMZ046-743>745-301700-
SOUTHERN LAKE MICHIGAN

STATION/POSITION TIME  TEMP WIND        PRES
                       AIR  DIR/SP/G
                 (UTC) (F)  (DEG/KT/KT) (MB)
BURNS HARBOR     1600   43  260/ 10/ 12 1019.0S
MICHIGAN CITY    1600   39  220/ 14/ 15   N/A

$$

INZ004-005-014>016-021>024-301700-
NORTH CENTRAL INDIANA

CITY           SKY/WX    TMP DP  RH WIND       PRES   REMARKS
ELKHART        SUNNY     50  19  29 W15G23    30.03S
GOSHEN         SUNNY     52  27  38 W18G30    30.02F
LOGANSPORT +   SUNNY     50  30  46 W12       30.09S
ROCHESTER +    SUNNY     54  28  37 W10G22    30.06F
SOUTH BEND     SUNNY     53  24  32 W22G29    30.05S
WARSAW +       SUNNY     50  27  40 NW20G26   30.04S

$$

INZ006>009-017-018-025>027-301700-
NORTHEAST INDIANA

CITY           SKY/WX    TMP DP  RH WIND       PRES   REMARKS
ANGOLA *+      SUNNY     52  30  43 NW16      30.00R
AUBURN +       SUNNY     50  28  43 W15G23    30.03S
FORT WAYNE     MOSUNNY   50  32  50 W17G26    30.05S
HUNTINGTON +   SUNNY     49  21  32 NW12G22   30.05S

$$

INZ028-029-035-036-043>045-051>053-301700-
WEST CENTRAL INDIANA

CITY           SKY/WX    TMP DP  RH WIND       PRES   REMARKS
CRAWFORDSVL +  SUNNY     49  26  41 MISG      30.13S
GREENCASTLE +  SUNNY     50  27  40 W8        30.14S
LAFAYETTE      SUNNY     52  30  43 W10G17    30.11R
TERRE HAUTE    SUNNY     52  31  44 W5        30.16R

$$

INZ030>032-037>040-046>048-054>057-064-065-301700-
CENTRAL INDIANA

CITY           SKY/WX    TMP DP  RH WIND       PRES   REMARKS
CP ATTERBURY + SUNNY     54  34  47 NW12      30.14S
FISHERS *+     SUNNY     50  36  57 NW10G17   30.12R
FRANKFORT +    SUNNY     51  33  48 W14G20    30.12S
GREENWOOD *+   SUNNY     50  30  46 W10G20    30.14R
INDIANAPOLIS   MOSUNNY   52  31  44 NW12      30.12R
-EAGLE CREEK   SUNNY     51  33  50 W9        30.12R
KOKOMO *+        N/A     50  34  53 W16       30.09S
MARION +       SUNNY     49  33  53 W17G23    30.09S
MT COMFORT *+  SUNNY     52  19  28 NW14G21   30.12R
SHELBYVILLE    SUNNY     52  32  46 NW9       30.12S
ZIONSVILLE +   SUNNY     51  32  48 W12       30.12S

$$

INZ033-034-041-042-049-050-058-059-301700-
EAST CENTRAL INDIANA

CITY           SKY/WX    TMP DP  RH WIND       PRES   REMARKS
MUNCIE         SUNNY     49  33  54 W16       30.09R

$$

INZ060-061-067>069-081>083-085>088-301700-
SOUTHWEST INDIANA

CITY           SKY/WX    TMP DP  RH WIND       PRES   REMARKS
EVANSVILLE     SUNNY     57  32  38 VRB5      30.22R
HUNTINGBURG *+ SUNNY     55  34  44 N10       30.20R
WASHINGTON +   SUNNY     54  27  36 NW9       30.19R

$$

INZ062-063-066-070>080-084-089>092-301700-
SOUTH CENTRAL AND SOUTHEAST INDIANA

CITY           SKY/WX    TMP DP  RH WIND       PRES   REMARKS
BEDFORD +      SUNNY     54  30  40 W10G18    30.17R
BLOOMINGTON    SUNNY     53  30  41 NW8       30.15R
NORTH VERNON + SUNNY     52  34  50 NW10      30.14R
SEYMOUR +      SUNNY     55  36  47 W7        30.16R

$$




USA.gov is the U.S. government's official web portal to all federal, state and local government web resources and services.